Airfield :
LOGIN :

Register | Disclaimer

   EN    FR    IT 

 










Legend :    VFR   Marginal VFR   IFR   Intensive IFR   Very Intensive IFR
Visi :
Ceiling :
>= 8 km
>= 3000ft
5 to 8 km
1000 to 3000 ft
1500m to 5 km
500 to 1000 ft
800 to 1500m
200 to 500 ft
< 800m
< 200 ft
Symbols :   Thunderstorms  Fog  Heavy snow  Heavy precipitations  Wind > 20 kt
SIGMETs :     Misc.  Thunderstorms  Icing  Turbulence  Mountain Waves  Volcanic Ashes







- Airport Elevation : 1325 ft
- IATA code : EBU
- Download approach charts


LFMH - St-Etienne Boutheon

CURRENT METAR :
  • 191500Z AUTO 35005KT 310V050 CAVOK 29/11 Q1020 NOSIG

EXPIRED METARs :
  • 191430Z AUTO 04005KT 360V080 CAVOK 30/10 Q1020 NOSIG
  • 191400Z AUTO 10003KT 040V160 CAVOK 29/11 Q1020 TEMPO FEW060TCU
  • 191330Z AUTO 31006KT 270V010 CAVOK 29/12 Q1021 TEMPO FEW060TCU
  • 191300Z AUTO 33004KT 230V040 CAVOK 29/12 Q1021 NOSIG
  • 191230Z AUTO VRB03KT CAVOK 29/13 Q1021 NOSIG

TAF TAF LFMH
Valid from the 19 at 15:00 until the 20 at 15:00 UTC


191400Z 1915/2015 VRB03KT CAVOK
TEMPO 1915/1918 33005KT
ATIS : +33 4 77 36 17 51
No reported NOTAMs for that airfield.



MET'MAP, your aeronautical weather chart ! - Copyright ORBIFLY December 2007 - Disclaimer

ORBIFLY MET'MAP TEAM :

Programming & Development : Alexandra Zaïnal
Concept & Development : Baudouin d'Aumeries
Co-Development & Prog : Marc-Olivier Méhu
Technical & hardware support : Manuel Goepfert

Contact : metmap@orbifly.com




SOURCES & CREDITS :

   NOAA